ATLAS 5 CENTAUR DEB, 44107

Orbit data source: Space-Track

ATLAS 5 CENTAUR DEB, 44107 is space debris in HEO originally from a launch on Wed, 17 Sep 2014 UTC launched from the Air Force Eastern Test Range (AFETR). Debris objects in space refer to the collection of defunct objects orbiting the Earth. Examples of debris include non-operational satellites, rocket bodies, and fragments generated from explosions, collisions, or faulty payload assembly.

Loading next visibility...
Identifier
44107, 2014-055CC
Orbit
HEO
Country
Flag of USUS
Related business
Flag of USUnited Launch Alliance/Lockheed Martin (US)
Manufacturer
Unknown
Mission
Spacecraft
Bus & Motor
Unknown
Mass
Unknown
Launch date (UTC)
2014-09-17 (11 years ago)
Launch vehicle
Unknown
Launch site
Air Force Eastern Test Range (AFETR)
Object type
Payload
Rocket body
Debris
Shape & HBR
Unknown shape, 1.1 m
Radar Cross Section
RCS unknown

Expand to show TLE details & history
Last TLE update: 2 days ago

TLE from 2 days ago
0 ATLAS 5 CENTAUR DEB
1 44107U 14055CC  26022.50826638  .00000015  00000-0  00000-0 0  9997
2 44107  19.2638 203.1603 4763175  63.4064 337.3508  1.75842802 43977
Epoch: 2026-01-22T12:11Z
TLE epoch observation values (Epoch: 2026-01-22T12:11:54.215Z)
Latitude
-0.00002°
Longitude
-101.75294°
Altitude
12,107.118 km
Speed
5.42 km/s
True Right ascension
13h 32m 20s
True Declination
0° 00' 00"
Sunlit
Object was in daylight at epoch
Visualization orbit readout
Latitude
Unknown
Longitude
Unknown
Altitude
Unknown
Speed
Unknown
Apparent Right ascension
Unknown
Apparent Declination
Unknown
Sunlit
N/A
Visualization observer readout
Local Sidereal Time
03:40:12
Azimuth
Unknown
Elevation
Unknown
Doppler factor
Unknown
Orbital elements
Apogee altitude
36,430.048 km
Perigee altitude
8,806.874 km
Semi-major axis
28,996.598 km
Eccentricity
0.47632
Inclination
19.2638°
RAAN
203.1603°
Arg. of periapsis
63.4064°
True anomaly
296.72431°
Mean anomaly
337.3508°
Eccentric anomaly
319.69886°
Mean motion
0.43956 °/min
Orbital period
818.99 mins
BSTAR
0
Loading maneuver chart data...
Computing Atmospheric mass density...

Documentation

Showing up to 5 results
|